Dallas/Ft Worth, TX

11:35 AM CST on January 21, 2018 (GMT -0600)
Dallas-Fort Worth International

Weather History for KDFW - November, 2011

Change the Weather History Date:

Tuesday, November 1, 2011

  Actual Average Record
Temperature  
Mean Temperature 67 °F 62 °F  
Max Temperature 77 °F 73 °F 88 °F (1945)
Min Temperature 57 °F 52 °F 31 °F (1906)
Degree Days  
Heating Degree Days 0 5  
Month to date heating degree days 0 5  
Since 1 July heating degree days 59 77  
Cooling Degree Days 2 2  
Month to date cooling degree days 2 2  
Year to date cooling degree days 3593 2725  
Growing Degree Days 17 (Base 50)    
Moisture  
Dew Point 48 °F    
Average Humidity 53    
Maximum Humidity 72    
Minimum Humidity 33    
Precipitation  
Precipitation 0.00 in 1998.00 in 1.96 in (1998)
Month to date precipitation 0.00  
Year to date precipitation 20.67 31.00  
Snow  
Snow 0.00 in 0.00 in 0.00 in ()
Month to date snowfall 0.0 0.0  
Since 1 July snowfall 0.0 0.0  
Since 1 September snowfall 0.0 0.0  
Snow Depth 0.00 in    
Sea Level Pressure  
Sea Level Pressure 30.04 in    
Wind  
Wind Speed 14 mph (South)    
Max Wind Speed 23 mph    
Max Gust Speed 29 mph    
Visibility 10 miles    
Events      
T = Trace of Precipitation, MM = Missing Value Source: NWS Daily Summary

Daily Weather History Graph

Daily Weather History Graph

Search for Another Location

Airport or City:

Trip Planner

Search our weather history database for the weather conditions in past years. The results will help you decide how hot, cold, wet, or windy it might be!

Date:

Astronomy

Nov. 01, 2011 Rise Set
Actual Time 7:45 AM CDT 6:37 PM CDT
Civil Twilight 7:20 AM CDT 7:02 PM CDT
Nautical Twilight 6:51 AM CDT 7:31 PM CDT
Astronomical Twilight 6:22 AM CDT 8:00 PM CDT
Moon 1:29 PM CDT (11/1) No Moon Set
Length of Visible Light 11h 42m
Length of Day
10h 51m
Waxing Crescent, 40% of the Moon is Illuminated
Nov 1
Waxing Crescent
Nov 2
First Quarter
Nov 10
Full
Nov 18
Last Quarter
Nov 25
New

Hourly Weather History & Observations

Time (CDT) Temp. Dew Point Humidity Pressure Visibility Wind Dir Wind Speed Gust Speed Precip Events Conditions
12:53 AM 64.0 °F 46.0 °F 52% 30.07 in 10.0 mi South 12.7 mph - N/A   Scattered Clouds
1:53 AM 62.1 °F 46.0 °F 56% 30.06 in 10.0 mi South 9.2 mph - N/A   Scattered Clouds
2:53 AM 61.0 °F 45.0 °F 56% 30.06 in 10.0 mi SSE 10.4 mph - N/A   Scattered Clouds
3:53 AM 59.0 °F 45.0 °F 60% 30.07 in 10.0 mi South 8.1 mph - N/A   Partly Cloudy
4:53 AM 60.1 °F 46.0 °F 60% 30.06 in 10.0 mi South 12.7 mph - N/A   Partly Cloudy
5:53 AM 59.0 °F 46.9 °F 64% 30.07 in 10.0 mi South 13.8 mph - N/A   Scattered Clouds
6:53 AM 57.9 °F 48.0 °F 70% 30.08 in 10.0 mi South 15.0 mph - N/A   Scattered Clouds
7:53 AM 57.0 °F 48.9 °F 74% 30.09 in 10.0 mi South 12.7 mph - N/A   Scattered Clouds
8:53 AM 59.0 °F 50.0 °F 72% 30.10 in 10.0 mi South 12.7 mph - N/A   Partly Cloudy
9:53 AM 64.0 °F 51.1 °F 63% 30.11 in 10.0 mi South 18.4 mph - N/A   Partly Cloudy
10:53 AM 68.0 °F 51.1 °F 55% 30.10 in 10.0 mi South 17.3 mph - N/A   Clear
11:53 AM 72.0 °F 50.0 °F 46% 30.09 in 10.0 mi South 17.3 mph 25.3 mph N/A   Clear
12:53 PM 73.9 °F 48.0 °F 40% 30.06 in 10.0 mi South 17.3 mph - N/A   Clear
1:53 PM 75.9 °F 46.9 °F 36% 30.03 in 10.0 mi South 21.9 mph 26.5 mph N/A   Clear
2:53 PM 75.9 °F 46.0 °F 35% 30.00 in 10.0 mi South 17.3 mph 25.3 mph N/A   Clear
3:53 PM 77.0 °F 46.9 °F 34% 29.98 in 10.0 mi South 18.4 mph 26.5 mph N/A   Clear
4:53 PM 75.9 °F 50.0 °F 40% 29.98 in 10.0 mi South 17.3 mph - N/A   Clear
5:53 PM 75.0 °F 50.0 °F 41% 29.97 in 10.0 mi South 13.8 mph - N/A   Clear
6:53 PM 70.0 °F 46.0 °F 42% 29.97 in 10.0 mi SSE 10.4 mph - N/A   Clear
7:53 PM 66.9 °F 44.1 °F 44% 29.97 in 10.0 mi SE 9.2 mph - N/A   Clear
8:53 PM 68.0 °F 45.0 °F 43% 29.97 in 10.0 mi SSE 12.7 mph - N/A   Clear
9:53 PM 69.1 °F 48.0 °F 47% 29.98 in 10.0 mi South 13.8 mph - N/A   Clear
10:53 PM 68.0 °F 50.0 °F 52% 29.98 in 10.0 mi SSE 11.5 mph - N/A   Clear
11:53 PM 66.2 °F 51.8 °F 60% 29.99 in 10.0 mi SSE 18.4 mph - N/A   Clear